Location: Bjelajci
(45.0103°N, 16.1758°E)
Time: 04:22:44
(UTC+00:00)

Cosmos 1833 Rocket - Pass Details

Date: 14 July 2020
Orbit: 832 x 840 km, 71.0° (Epoch: 11 August)

Event Time Altitude Azimuth Distance (km) Brightness Sun altitude
Exits shadow 00:44:57 33° 180° (S) 1,376 3.3 -19.3°
Maximum altitude 00:47:26 64° 111° (ESE) 922 2.9 -19.1°
Drops below altitude 10° 00:53:00 10° 31° (NNE) 2,452 6.4 -18.7°
Sets 00:55:27 0° 29° (NNE) 3,392 7.6 -18.5°
